Lebanon, Oregon, United States (97355)
Lat: 44.54N, Lon: 122.91W
Wx Zone: ORZ008
Local Info
Past Weather Observations for Today

NOTE: This archive is for the closest National Weather Service station to Lebanon. Information may differ from the station used for current weather conditions.

Click here for Long-term Archive

Time Weather Temperature Dewpoint Humidity Pressure Winds Precip Visibility
12:35
Overcast
52°F / 11°C 45°F / 7°C 77% 29.92 in
(1013 mb)
S 11.5 mph
(S 19 kph)
- 10SM
12:15
Overcast
52°F / 11°C 45°F / 7°C 77% 29.92 in
(1013 mb)
S 13.8 mph
(S 22 kph)
- 10SM
11:55
Overcast
52°F / 11°C 46°F / 8°C 82% 29.92 in
(1013 mb)
S 13.8 mph
(S 22 kph)
- 10SM
11:35
Overcast
50°F / 10°C 45°F / 7°C 82% 29.95 in
(1014 mb)
S 15 mph
(S 24 kph)
- 10SM
11:15
Overcast
50°F / 10°C 45°F / 7°C 82% 29.95 in
(1014 mb)
SSE 9.2 mph
(SSE 15 kph)
- 10SM
10:55
Overcast
52°F / 11°C 46°F / 8°C 82% 29.95 in
(1014 mb)
S 8.1 mph
(S 13 kph)
- 10SM
10:35
Overcast
50°F / 10°C 46°F / 8°C 88% 29.98 in
(1015 mb)
SSE 4.6 mph
(SSE 7 kph)
- 10SM
10:15
Overcast
48°F / 9°C 45°F / 7°C 87% 29.98 in
(1015 mb)
S 3.5 mph
(S 6 kph)
- 10SM
09:55
Overcast
48°F / 9°C 45°F / 7°C 87% 29.98 in
(1015 mb)
Calm - 10SM
09:35
Overcast
46°F / 8°C 45°F / 7°C 93% 29.98 in
(1015 mb)
Calm - 10SM
09:15
Overcast
46°F / 8°C 45°F / 7°C 93% 29.98 in
(1015 mb)
Calm - 10SM
08:55
Overcast
46°F / 8°C 43°F / 6°C 87% 29.98 in
(1015 mb)
E 3.5 mph
(E 6 kph)
- 10SM
08:35
Overcast
46°F / 8°C 43°F / 6°C 87% 29.98 in
(1015 mb)
NE 3.5 mph
(NE 6 kph)
- 10SM
08:15
Overcast
46°F / 8°C 43°F / 6°C 87% 29.95 in
(1014 mb)
ENE 3.5 mph
(ENE 6 kph)
- 10SM
07:55
Overcast
46°F / 8°C 43°F / 6°C 87% 29.95 in
(1014 mb)
Calm - 10SM
07:35
Overcast
46°F / 8°C 43°F / 6°C 87% 29.98 in
(1015 mb)
ENE 4.6 mph
(ENE 7 kph)
- 10SM
07:15
Overcast
46°F / 8°C 43°F / 6°C 87% 29.98 in
(1015 mb)
Calm - 10SM
06:55
Overcast
46°F / 8°C 43°F / 6°C 87% 29.98 in
(1015 mb)
Calm - 10SM
06:35
Overcast
46°F / 8°C 43°F / 6°C 87% 29.95 in
(1014 mb)
Calm - 10SM
06:15
Overcast
46°F / 8°C 43°F / 6°C 87% 29.95 in
(1014 mb)
Calm - 10SM
05:55
Overcast
46°F / 8°C 43°F / 6°C 87% 29.95 in
(1014 mb)
Calm - 10SM
05:35
Overcast
46°F / 8°C 43°F / 6°C 87% 29.98 in
(1015 mb)
ESE 3.5 mph
(ESE 6 kph)
- 10SM
05:15
Overcast
45°F / 7°C 41°F / 5°C 87% 29.98 in
(1015 mb)
Calm - 5SM
04:55
Overcast
45°F / 7°C 41°F / 5°C 87% 29.98 in
(1015 mb)
Calm - 3SM
04:35
Overcast
45°F / 7°C 39°F / 4°C 81% 29.98 in
(1015 mb)
Calm - 1 3/4SM
04:15
Overcast
45°F / 7°C 39°F / 4°C 81% 29.98 in
(1015 mb)
Calm - 1 3/4SM
03:55
Overcast
45°F / 7°C 41°F / 5°C 87% 29.98 in
(1015 mb)
Calm - 1/2SM
03:35
Overcast
45°F / 7°C 39°F / 4°C 81% 29.98 in
(1015 mb)
Calm - 1/4SM
03:15
Overcast
45°F / 7°C 39°F / 4°C 81% 29.98 in
(1015 mb)
Calm - 1/4SM
02:55
Overcast
43°F / 6°C 39°F / 4°C 87% 29.98 in
(1015 mb)
Calm - 1/4SM
02:35
Overcast
43°F / 6°C 37°F / 3°C 81% 29.98 in
(1015 mb)
Calm - M1/4SM
02:15
Overcast
43°F / 6°C 37°F / 3°C 81% 29.98 in
(1015 mb)
Calm - 1/4SM
01:55
Mostly Cloudy
45°F / 7°C 39°F / 4°C 81% 29.98 in
(1015 mb)
Calm - 1/2SM
01:35
Overcast
46°F / 8°C 43°F / 6°C 87% 29.98 in
(1015 mb)
N 4.6 mph
(N 7 kph)
- 1/2SM
01:15
Overcast
46°F / 8°C 41°F / 5°C 82% 29.98 in
(1015 mb)
Calm - 1 1/4SM
00:55
Overcast
46°F / 8°C 43°F / 6°C 87% 29.98 in
(1015 mb)
Calm - 2SM
00:35
Overcast
46°F / 8°C 43°F / 6°C 87% 29.98 in
(1015 mb)
Calm - 3SM
00:15
Overcast
46°F / 8°C 43°F / 6°C 87% 30.01 in
(1016 mb)
Calm - 2SM
Time Weather Temperature Dewpoint Humidity Pressure Winds Precip Visibility


Weather for websites

WeatherForYou.com, LLC is not responsible for any damages or problems caused by this service. Current weather conditions are obtained from the closest station including government and personal stations which may have varying degrees of accuracy. Weather forecasts are derived from the NOAA NDFD. Like all things, this site belongs to Jesus Christ... He just trusts me to maintain it. If you have any questions or comments email webmaster@weatherforyou.com

Copyright © 2014, WeatherForYou.com LLC. All rights reserved.